When you browse on this site, cookies collect data to enhance your experience and personalize the content and advertising you see.
Visit our Privacy Policy to learn more. By continuing to use the site, you agree to this use of cookies and data.
  • In Romania
  • List of Countries
  • For 7 days
  • Water Temperature
  • Satellite Maps
  • Weather Map
  • Weather Widgets
  • user-avatar
    Login

    Hourly Weather Muniaczkowice

    Today, 17 December, Monday

    Time Temperature Precipitation Wind Pressure Humidity
    00:00 -4°C° 0 mm 1 mps 741 mmHg 90%
    01:00 -4°C° 0 mm 1 mps 741 mmHg 90%
    02:00 -4°C° 0 mm 1 mps 741 mmHg 89%
    03:00 -4°C° 0 mm 1 mps 741 mmHg 89%
    04:00 -6°C° 0 mm 1 mps 741 mmHg 88%
    05:00 -6°C° 0 mm 1 mps 741 mmHg 88%
    06:00 -6°C° 0 mm 1 mps 741 mmHg 87%
    07:00 -4°C° 0 mm 1 mps 741 mmHg 86%
    08:00 -4°C° 0 mm 1 mps 741 mmHg 83%
    09:00 -3°C° 0 mm 1 mps 742 mmHg 81%
    10:00 -2°C° 0 mm 1 mps 742 mmHg 78%
    11:00 -1°C° 0 mm 1 mps 742 mmHg 77%
    12:00 0°C° 0 mm 1 mps 742 mmHg 77%
    13:00 0°C° 0 mm 1 mps 743 mmHg 76%
    14:00 -1°C° 0 mm 1 mps 743 mmHg 79%
    15:00 -1°C° 0 mm 1 mps 743 mmHg 83%
    16:00 -2°C° 0 mm 1 mps 744 mmHg 86%
    17:00 -2°C° 0 mm 1 mps 744 mmHg 87%
    18:00 -3°C° 0 mm 1 mps 744 mmHg 88%
    19:00 -3°C° 0 mm 1 mps 745 mmHg 88%
    20:00 -5°C° 0 mm 2 mps 745 mmHg 89%
    21:00 -5°C° 0 mm 2 mps 745 mmHg 89%
    22:00 -4°C° 0 mm 2 mps 746 mmHg 90%
    23:00 -4°C° 0 mm 2 mps 746 mmHg 90%

    Tomorrow, 18 December, Tuesday

    Time Temperature Precipitation Wind Pressure Humidity
    00:00 -4°C° 0 mm 2 mps 746 mmHg 91%
    01:00 -1°C° 0 mm 1 mps 747 mmHg 91%
    02:00 -1°C° 0 mm 1 mps 747 mmHg 92%
    03:00 -1°C° 0 mm 1 mps 747 mmHg 92%
    04:00 -1°C° 0 mm 1 mps 747 mmHg 92%
    05:00 -1°C° 0 mm 1 mps 747 mmHg 92%
    06:00 -1°C° 0 mm 1 mps 747 mmHg 92%
    07:00 -2°C° 0 mm 0 mps 747 mmHg 92%
    08:00 -1°C° 0 mm 0 mps 747 mmHg 91%
    09:00 -1°C° 0 mm 0 mps 748 mmHg 90%
    10:00 +1°C° 0 mm 1 mps 748 mmHg 89%
    11:00 0°C° 0 mm 0 mps 747 mmHg 89%
    12:00 +1°C° 0 mm 0 mps 747 mmHg 90%
    13:00 +1°C° 0 mm 0 mps 747 mmHg 90%
    14:00 0°C° 0 mm 0 mps 747 mmHg 91%
    15:00 -1°C° 0 mm 0 mps 747 mmHg 91%
    16:00 -1°C° 0 mm 0 mps 747 mmHg 92%
    17:00 0°C° 0 mm 1 mps 747 mmHg 92%
    18:00 -1°C° 0 mm 1 mps 747 mmHg 93%
    19:00 -1°C° 0 mm 1 mps 747 mmHg 93%
    20:00 -1°C° 0 mm 1 mps 747 mmHg 93%
    21:00 -1°C° 0 mm 1 mps 747 mmHg 94%
    22:00 -1°C° 0 mm 1 mps 747 mmHg 94%
    23:00 -4°C° 0 mm 2 mps 746 mmHg 94%

    Day after tomorrow, 19 December, Wednesday

    Time Temperature Precipitation Wind Pressure Humidity
    00:00 -4°C° 0 mm 2 mps 746 mmHg 94%
    01:00 -5°C° 0 mm 2 mps 746 mmHg 94%
    02:00 -5°C° 0 mm 2 mps 746 mmHg 93%
    03:00 -5°C° 0 mm 2 mps 746 mmHg 92%
    04:00 -5°C° 0 mm 2 mps 746 mmHg 92%
    05:00 -6°C° 0 mm 2 mps 745 mmHg 91%
    06:00 -6°C° 0 mm 2 mps 745 mmHg 91%
    07:00 -6°C° 0 mm 2 mps 745 mmHg 90%
    08:00 -6°C° 0 mm 3 mps 745 mmHg 88%
    09:00 -6°C° 0 mm 3 mps 746 mmHg 85%
    10:00 -5°C° 0 mm 3 mps 746 mmHg 83%
    11:00 -4°C° 0 mm 3 mps 745 mmHg 83%
    12:00 -4°C° 0 mm 3 mps 745 mmHg 82%
    13:00 -2°C° 0 mm 3 mps 745 mmHg 81%
    14:00 -4°C° 0 mm 3 mps 744 mmHg 84%
    15:00 -5°C° 0 mm 3 mps 744 mmHg 87%
    16:00 -5°C° 0 mm 3 mps 744 mmHg 90%
    17:00 -6°C° 0 mm 3 mps 744 mmHg 90%
    18:00 -6°C° 0 mm 3 mps 744 mmHg 90%
    19:00 -6°C° 0 mm 3 mps 744 mmHg 89%
    20:00 -6°C° 0 mm 3 mps 744 mmHg 89%
    21:00 -6°C° 0 mm 3 mps 744 mmHg 88%
    22:00 -6°C° 0 mm 3 mps 744 mmHg 88%
    23:00 -7°C° 0 mm 3 mps 744 mmHg 88%

    20 December, Thursday

    Time Temperature Precipitation Wind Pressure Humidity
    00:00 -6°C° 0 mm 2 mps 743 mmHg 87%
    01:00 -6°C° 0 mm 2 mps 743 mmHg 87%
    02:00 -6°C° 0 mm 2 mps 743 mmHg 86%
    03:00 -6°C° 0 mm 2 mps 743 mmHg 86%
    04:00 -6°C° 0 mm 2 mps 743 mmHg 85%
    05:00 -6°C° 0 mm 2 mps 743 mmHg 85%
    06:00 -5°C° 0 mm 2 mps 743 mmHg 84%
    07:00 -5°C° 0 mm 2 mps 743 mmHg 83%
    08:00 -5°C° 0 mm 2 mps 743 mmHg 82%
    09:00 -4°C° 0 mm 2 mps 743 mmHg 81%
    10:00 -3°C° 0 mm 2 mps 743 mmHg 81%
    11:00 -3°C° 0 mm 2 mps 742 mmHg 81%
    12:00 0°C° 0 mm 1 mps 742 mmHg 81%
    13:00 +1°C° 0 mm 1 mps 742 mmHg 80%
    14:00 0°C° 0 mm 1 mps 742 mmHg 82%
    15:00 0°C° 0 mm 1 mps 742 mmHg 84%
    16:00 -1°C° 0 mm 1 mps 742 mmHg 86%
    17:00 -1°C° 0 mm 1 mps 742 mmHg 87%
    18:00 -1°C° 0 mm 1 mps 742 mmHg 87%
    19:00 -1°C° 0 mm 1 mps 742 mmHg 88%
    20:00 -1°C° 0 mm 1 mps 742 mmHg 88%
    21:00 -1°C° 0 mm 1 mps 742 mmHg 89%
    22:00 -1°C° 0 mm 1 mps 742 mmHg 90%
    23:00 -1°C° 0.1 mm 1 mps 742 mmHg 90%

    21 December, Friday

    Time Temperature Precipitation Wind Pressure Humidity
    00:00 -1°C° 0.1 mm 1 mps 741 mmHg 91%
    01:00 -1°C° 0.1 mm 1 mps 741 mmHg 91%
    02:00 -1°C° 0.2 mm 1 mps 741 mmHg 92%
    03:00 -1°C° 0.2 mm 1 mps 741 mmHg 93%
    04:00 -1°C° 0.2 mm 1 mps 741 mmHg 94%
    05:00 -1°C° 0.3 mm 1 mps 741 mmHg 94%
    06:00 -1°C° 0.3 mm 1 mps 741 mmHg 95%
    07:00 -1°C° 0.3 mm 1 mps 741 mmHg 96%
    08:00 0°C° 0.3 mm 1 mps 741 mmHg 95%
    09:00 0°C° 0.3 mm 1 mps 741 mmHg 94%
    10:00 -1°C° 0.3 mm 2 mps 741 mmHg 94%
    11:00 -1°C° 0.3 mm 2 mps 741 mmHg 94%
    12:00 -1°C° 0.3 mm 2 mps 741 mmHg 94%
    13:00 +1°C° 0.3 mm 2 mps 741 mmHg 95%
    14:00 -1°C° 0.2 mm 2 mps 741 mmHg 94%
    15:00 -1°C° 0.2 mm 2 mps 741 mmHg 94%
    16:00 -1°C° 0.2 mm 2 mps 741 mmHg 93%
    17:00 -1°C° 0.1 mm 2 mps 741 mmHg 93%
    18:00 -1°C° 0.1 mm 2 mps 741 mmHg 93%
    19:00 -1°C° 0.1 mm 2 mps 741 mmHg 92%
    20:00 -2°C° 0 mm 2 mps 741 mmHg 91%
    21:00 -2°C° 0 mm 2 mps 741 mmHg 91%
    22:00 -3°C° 0 mm 2 mps 741 mmHg 90%
    23:00 -3°C° 0 mm 2 mps 741 mmHg 90%

    22 December, Saturday

    Time Temperature Precipitation Wind Pressure Humidity
    00:00 -2°C° 0 mm 2 mps 740 mmHg 90%
    01:00 -2°C° 0 mm 2 mps 740 mmHg 89%
    02:00 -2°C° 0 mm 2 mps 740 mmHg 89%
    03:00 -2°C° 0 mm 2 mps 740 mmHg 89%
    04:00 -2°C° 0 mm 2 mps 740 mmHg 89%
    05:00 -2°C° 0.1 mm 2 mps 740 mmHg 89%
    06:00 -2°C° 0.1 mm 2 mps 740 mmHg 90%
    07:00 -1°C° 0.1 mm 2 mps 740 mmHg 90%
    08:00 -1°C° 0.3 mm 2 mps 740 mmHg 91%
    09:00 -1°C° 0.3 mm 2 mps 740 mmHg 92%
    10:00 +1°C° 0.3 mm 2 mps 740 mmHg 94%
    11:00 +1°C° 0.3 mm 2 mps 740 mmHg 95%
    12:00 +2°C° 0.3 mm 1 mps 740 mmHg 96%
    13:00 +2°C° 0.3 mm 1 mps 740 mmHg 97%
    14:00 +2°C° 0.2 mm 1 mps 740 mmHg 96%
    15:00 +2°C° 0.2 mm 1 mps 740 mmHg 95%
    16:00 +2°C° 0.2 mm 1 mps 740 mmHg 93%
    17:00 +2°C° 0.1 mm 1 mps 741 mmHg 94%
    18:00 +1°C° 0.1 mm 1 mps 741 mmHg 94%
    19:00 +1°C° 0.1 mm 1 mps 741 mmHg 94%
    20:00 +1°C° 0.1 mm 1 mps 742 mmHg 94%
    21:00 +1°C° 0.1 mm 1 mps 742 mmHg 94%
    22:00 0°C° 0.1 mm 0 mps 743 mmHg 94%
    23:00 0°C° 0.1 mm 0 mps 743 mmHg 95%
    Show more